Regional Weather Roundup
Issued by NWS

Home | Current Version | Previous Version | Text Only | Print | Product List | Glossary Off
Versions: 1 2 3 4 5 6 7 8 9 10 11 12 13 14 15 16 17 18 19 20 21 22 23 24 25 26 27 28 29 30 31 32 33 34 35 36 37 38 39 40 41 42 43 44 45 46 47 48 49 50

000
ASUS45 KABQ 272110
RWRNM
NEW MEXICO REGIONAL WEATHER ROUNDUP
NATIONAL WEATHER SERVICE ALBUQUERQUE NM
300 PM MDT FRI MAY 27 2016

NOTE: "FAIR" MEANS FEW OR NO CLOUDS BELOW 12,000 FEET AGL WITH NO
       SIGNIFICANT WEATHER OR OBSTRUCTIONS TO VISION.

      THIS PRODUCT IS RELEASED AS TWO VERSIONS.  ONE VERSION NEAR
      THE TOP OF THE HOUR CONTAINING PRELIMINARY DATA FROM ALBUQUERQUE
      AND OTHER STATIONS.  A FINAL VERSION WITH ADDITIONAL DATA IS
      ISSUED ABOUT 10 MINUTES AFTER THE HOUR.

NMZ501-503-504-510>518-272200-
NORTHWEST PLATEAU/NORTHCENTRAL MOUNTAINS

CITY           SKY/WX    TMP DP  RH WIND       PRES   REMARKS
FARMINGTON     FAIR      71  21  15 W21G31    29.88F
LOS ALAMOS     FAIR      64  22  20 NW9G18    29.93F
SANTA FE       PTSUNNY   71  23  16 W18G33    29.88F
TAOS           FAIR      63  30  29 N7        29.93F
ANGEL FIRE     FAIR      46  35  63 E8        30.00S

$$
NMZ402-403-502-505>509-272200-
WESTCENTRAL MOUNTAINS/SOUTHWEST MOUNTAINS

CITY           SKY/WX    TMP DP  RH WIND       PRES   REMARKS
GALLUP         PTSUNNY   66  23  19 NW9G17    29.97F
GRANTS         PTSUNNY   67  22  18 N13G22    29.97F
SILVER CITY      N/A     73  19  13 SW13G20   29.96F

$$
NMZ407-409-411-412-272200-
SOUTHERN DESERTS

CITY           SKY/WX    TMP DP  RH WIND       PRES   REMARKS
LORDSBURG      FAIR      79  19  11 W7G20     29.91F
DEMING         FAIR      80  20  10 SW15G25   29.89F
LAS CRUCES     FAIR      80  20  10 SW14      29.90F
HOLLOMAN AFB   FAIR      78  23  13 SW10G20   29.86F
ALAMOGORDO     FAIR      79  23  12 NW12G17   29.88F
T OR C         FAIR      80  20  10 W15G21    29.86F

$$
NMZ519>523-272200-
CENTRAL VALLEYS/CENTRAL HIGHLANDS

CITY           SKY/WX    TMP DP  RH WIND       PRES   REMARKS
ALBUQUERQUE    PTSUNNY   75  22  13 W22G28    29.88F
DOUBLE EAGLE   PTSUNNY   72  25  17 NW16G28   29.91F
MORIARTY ARPT  FAIR      73  20  13 W16G23    29.92F
CLINES CORNERS FAIR      68  23  18 W22       29.92F
BELEN          FAIR      75  21  13 W12G24    29.87F
SOCORRO        FAIR      77  22  13 NW5       29.86F

$$
NMZ524>526-539-540-272200-
SOUTHCENTRAL MOUNTAINS

CITY           SKY/WX    TMP DP  RH WIND       PRES   REMARKS
RUIDOSO          N/A     66  19  16 NW14G20   29.99S

$$
NMZ527>531-272200-
NORTHEAST HIGHLANDS/NORTHEAST PLAINS

CITY           SKY/WX    TMP DP  RH WIND       PRES   REMARKS
LAS VEGAS      FAIR      69  22  16 VRB7      29.88F
RATON          PTSUNNY   66  29  24 N7G17     29.85F
CLAYTON        FAIR      72  37  28 NW16G28   29.80F

$$
NMZ532>537-272200-
EASTCENTRAL PLAINS

CITY           SKY/WX    TMP DP  RH WIND       PRES   REMARKS
TUCUMCARI      FAIR      77  30  17 SW8G17    29.79F
CANNON AFB     FAIR      77  28  16 NW14      29.80S
CLOVIS AIRPORT FAIR      79  34  19 NW20      29.80S

$$
NMZ028-029-538-272200-
SOUTHEAST PLAINS

CITY           SKY/WX    TMP DP  RH WIND       PRES   REMARKS
ROSWELL        FAIR      84  23  10 N12       29.78F
ARTESIA        FAIR      84  25  11 CALM      29.78F
CARLSBAD       FAIR      86  20   9 W13G32    29.77F
HOBBS          SUNNY     84  19   9 W20G26    29.81F


$$




USA.gov is the U.S. government's official web portal to all federal, state and local government web resources and services.